Showing default

COSMOS 1900, 18665

Orbit data source: Space-Track

COSMOS 1900, 18665 is a payload satellite owned by VMF (CIS) in LEO that was launched on Sat, 12 Dec 1987 UTC via a TSIKLON-2 launch vehicle from the Tyuratam Missile And Space Complex (TTMTR). Payload-class satellites include a variety of spacecraft equipped with specific instruments for various scientific and technological missions. These include communications satellites like Starlink; space stations such as the ISS; scientific satellites like the Hubble; Earth observation satellites from companies like Planet Labs, Umbra, and HawkEye 360; GPS; miniature CubeSats for education and research; and military/defense satellites.

Loading next visibility...
Identifier
18665, 1987-101A
Orbit
LEO
Country
Flag of CISCIS
Related business
Manufacturer
KOMET/ARSL
Mission
Defense Sigint
Bus & Motor
US-A REACTOR, Unknown motor
Mass
4,300 kg wet, 1,154 kg dry
Launch date (UTC)
1987-12-12 (39 years ago)
Launch vehicle
TSIKLON-2
Launch site
Tyuratam Missile And Space Complex (TTMTR)
Object type
Payload
Rocket body
Debris
Shape & HBR
Cone + Cyl, 2.9 m
Radar Cross Section
6.586 m², Large (>1 m²)

Expand to show TLE details & history
Last TLE update: 3 days ago

TLE from 3 days ago
0 COSMOS 1900
1 18665U 87101A   26171.01911967  .00000020  00000-0  28122-4 0  9995
2 18665  66.0847  18.5646 0025737  97.2162 263.1871 14.55663297 48895
Epoch: 2026-06-20T00:27Z
TLE epoch observation values (Epoch: 2026-06-20T00:27:31.939Z)
Latitude
-0.00004°
Longitude
103.44175°
Altitude
711.504 km
Speed
7.499 km/s
True Right ascension
01h 14m 15s
True Declination
0° 00' 00"
Sunlit
Object was in daylight at epoch
Visualization orbit readout
Latitude
Unknown
Longitude
Unknown
Altitude
Unknown
Speed
Unknown
Apparent Right ascension
Unknown
Apparent Declination
Unknown
Sunlit
N/A
Visualization observer readout
Local Sidereal Time
02:13:17
Azimuth
Unknown
Elevation
Unknown
Doppler factor
Unknown
Orbital elements
Apogee altitude
723.872 km
Perigee altitude
687.409 km
Semi-major axis
7,083.777 km
Eccentricity
0.00257
Inclination
66.0847°
RAAN
18.5646°
Arg. of periapsis
97.2162°
True anomaly
262.89437°
Mean anomaly
263.1871°
Eccentric anomaly
263.04072°
Mean motion
3.64037 °/min
Orbital period
98.89 mins
BSTAR
0.000028122
Loading maneuver chart data...
Computing Atmospheric mass density...
Loading historical data...
Loading historical data...
Loading historical data...
Loading historical data...
Loading historical data...
Loading historical data...
Loading historical data...

Documentation

Showing up to 5 results
|